Location: Tr�vern
(48.0333°N, 4.6000°W)
Time: 19:20:36
(UTC+00:00)

Gbstr 26 Del rocket - Pass Details

Date: 14 July 2020
Orbit: 492 x 1264 km, 51.8° (Epoch: 11 August)

Event Time Altitude Azimuth Distance (km) Brightness Sun altitude
Rises 01:35:54 0° 289° (WNW) 2,613 6.3 -18.5°
Reaches altitude 10° 01:37:59 10° 293° (WNW) 1,770 5.5 -18.4°
Maximum altitude 01:41:54 63° 15° (NNE) 645 3.4 -18.2°
Drops below altitude 10° 01:46:31 10° 98° (E) 2,069 5.9 -17.9°
Sets 01:49:07 0° 101° (E) 3,105 6.8 -17.8°
